COMSATBW-1

Last updated on Jan. 29, 2020, 4:37 a.m. UTC

1 35943U 09054B   20028.79907941  .00000024  00000-0  00000-0 0  9996
2 35943   0.0329 111.7362 0002302 209.4089 157.0018  1.00271150 37920
UTC
Height (km)
Latitude
Longitude
Inclination
Orbital Period
UTC large
Height (km)
Speed (km/s)
/
Latitude / Longitude
Inclination (degrees)
Orbital Period (minutes)
Azimuth
Elevation
Range (km)
Doppler Factor
iOS Compass Heading
iOS Angle

Next 30 passes for location: Hong Kong

Rise time Rise Azimuth (degrees) Set time Set Azimuth (degrees) Duration Max altitude (degrees)

No matching passes for this satellites